6P/d'Arrest (2021)

Japanese version
Home page
Updated on March 27, 2022

---------------------------------------------------------------------

* Profile

* Pictures

* Orbital Elements

Epoch 2022 Jan. 21.0 TT = JDT 2459600.5
T 2021 Sept. 17.76116 TT                                Rudenko
q   1.3545379            (2000.0)            P               Q
n   0.15067345     Peri.  178.08851     +0.73289124     +0.64399352
a   3.4976652      Node   138.93495     -0.62855302     +0.76434190
e   0.6127308      Incl.   19.51219     -0.26036805     -0.03246252
P   6.54
From 3348 observations 1987 Mar. 31-2022 Jan. 31, mean residual 1".0.
     Nongravitational parameters A1 = +0.54, A2 = +0.0991.

* Finding Charts

* Magnitudes Graph

        m1 = 16.0 + 5 log d +  5.0 log r          [   ,-75]  (             - 2021 July  4)
        m1 =  3.5 + 5 log d + 45.0 log r(t - 60)  [-75,210]  (2021 July  4 - 2022 Apr. 15)
        m1 = 16.0 + 5 log d +  5.0 log r          [210,   ]  (2022 Apr. 15 -             )

---------------------------------------------------------------------

The orbital elements are published on M.P.E.C. 2022-C56.
The charts are made with StellaNavigator Ver.10 (AstroArts).
The magnitudes graphs are made with Comet for Windows.

---------------------------------------------------------------------

Copyright(C) Seiichi Yoshida (comet@aerith.net). All rights reserved.